Location: Unspecified
(0.0000°N, 0.0000°E)
Time: 01:00:14
(UTC+01:00)

AO-40 - Visible Passes

Search period start: 25 March 2017 00:00
Search period end: 04 April 2017 01:00
Orbit: 1061 x 58759 km, 6.3° (Epoch: 22 March)

Date Brightness Start Highest point End Pass type
(mag) Time Alt. Az. Time Alt. Az. Time Alt. Az.
25 Mar ? 18:14:32 10° E 01:29:24 80° ESE 04:01:41 10° E visible
27 Mar ? 00:53:46 10° W 01:44:56 15° W 03:01:52 10° W visible
27 Mar ? 18:54:06 10° W 22:12:53 83° S 05:09:55 10° W visible
28 Mar ? 17:23:49 10° E 00:08:06 83° S 08:45:12 10° ENE daylight
29 Mar ? 19:05:51 10° E 02:08:44 76° ESE 03:33:23 10° E visible
31 Mar ? 00:15:14 10° W 01:17:34 19° W 03:03:40 10° W visible
31 Mar ? 18:26:08 10° W 22:11:01 83° S 05:01:06 10° W visible
01 Apr ? 17:18:46 10° E 23:59:27 83° S 08:17:33 10° ENE daylight
02 Apr ? 18:57:14 10° E 01:55:30 70° ESE 03:04:58 10° E visible
